Location: Goudex
(43.3760°N, 0.9543°E)
Time: 02:33:38
(UTC+00:00)

Cosmos 2082 Rocket - Pass Details

Date: 20 November 2019
Orbit: 833 x 853 km, 71.0° (Epoch: 12 December)

Event Time Altitude Azimuth Distance (km) Brightness Sun altitude
Exits shadow 05:26:28 11° 330° (NNW) 2,384 4.2 -16.0°
Drops below altitude 10° 05:27:35 10° 341° (NNW) 2,488 4.3 -15.8°
Sets 05:31:58 0° 13° (NNE) 3,424 5.4 -15.1°
